Location: Wildlife_Club
(35.6000°N, 81.4330°W)
Time: 07:26:15
(UTC-04:00)

Vanguard 2 Rocket - Visible Passes

Search period start: 18 June 2019 00:00
Search period end: 28 June 2019 00:00
Orbit: 554 x 3326 km, 32.9° (Epoch: 17 June)

Date Brightness Start Highest point End Pass type
(mag) Time Alt. Az. Time Alt. Az. Time Alt. Az.
18 Jun 8.9 01:31:59 10° W 01:44:22 80° S 02:04:02 10° E visible
18 Jun 9.4 03:46:19 10° W 04:02:25 74° SSW 04:22:51 10° ESE visible
18 Jun 8.5 22:21:14 10° SSW 22:28:40 40° SE 22:41:05 10° E visible
19 Jun 8.6 00:32:34 10° WSW 00:43:06 75° SSE 01:01:12 10° E visible
19 Jun 9.2 02:46:08 10° W 03:00:23 79° S 03:20:50 10° ESE visible
19 Jun 9.6 05:01:22 10° W 05:18:27 57° SSW 05:37:38 10° SE visible
19 Jun 8.6 21:23:31 10° S 21:29:19 25° SE 21:38:05 10° E visible
19 Jun 8.3 23:33:32 10° WSW 23:42:26 66° SSE 23:58:18 10° E visible
20 Jun 8.9 01:46:19 10° W 01:58:38 81° S 02:18:18 10° E visible
20 Jun 9.4 04:00:41 10° W 04:16:28 65° SSW 04:36:34 10° SE visible
20 Jun 8.2 22:34:52 10° SW 22:42:21 52° SSE 22:55:33 10° E visible
21 Jun 8.6 00:46:50 10° W 00:57:21 80° S 01:15:28 10° E visible
21 Jun 9.2 03:00:29 10° W 03:14:34 72° SSW 03:34:49 10° ESE visible
21 Jun 9.7 05:15:58 10° W 05:32:11 46° SSW 05:50:32 10° SSE visible
21 Jun 8.2 21:36:38 10° SSW 21:42:48 36° SE 21:52:57 10° E visible
21 Jun 8.3 23:47:42 10° WSW 23:56:34 74° SSE 00:12:35 10° E visible
22 Jun 8.9 02:00:40 10° W 02:12:55 77° S 02:32:27 10° ESE visible
22 Jun 9.5 04:15:08 10° W 04:30:25 55° SSW 04:49:52 10° SE visible
22 Jun 8.0 22:48:51 10° WSW 22:56:18 64° SSE 23:09:52 10° E visible
23 Jun 8.6 01:01:11 10° W 01:11:39 80° S 01:29:43 10° E visible
23 Jun 9.2 03:14:52 10° W 03:28:41 63° SSW 03:48:26 10° SE visible
23 Jun 9.9 05:30:57 10° W 05:45:51 35° SW 06:02:44 10° SSE visible
23 Jun 7.8 21:50:19 10° SW 21:56:34 49° SSE 22:07:27 10° E visible
24 Jun 8.3 00:01:59 10° W 00:10:50 79° S 00:26:52 10° E visible
24 Jun 8.9 02:15:03 10° W 02:27:08 70° SSW 02:46:22 10° ESE visible
24 Jun 9.6 04:29:48 10° W 04:44:16 44° SSW 05:02:36 10° SSE visible
24 Jun 7.9 23:03:02 10° WSW 23:10:28 73° SSE 23:24:10 10° E visible
25 Jun 8.6 01:15:33 10° W 01:25:56 75° S 01:43:50 10° ESE visible
25 Jun 9.3 03:29:22 10° W 03:42:43 52° SSW 04:01:37 10° SE visible
25 Jun 7.6 22:04:19 10° WSW 22:10:34 62° SSE 22:21:48 10° E visible
26 Jun 8.3 00:16:20 10° W 00:25:08 78° S 00:41:06 10° E visible
26 Jun 8.9 02:29:27 10° W 02:41:18 60° SSW 02:59:55 10° SE visible
26 Jun 9.8 04:44:54 10° W 04:58:08 33° SW 05:14:35 10° SSE visible
26 Jun 7.5 21:05:52 10° SW 21:11:06 45° SSE 21:19:51 10° E visible
26 Jun 7.9 23:17:20 10° W 23:24:45 77° S 23:38:27 10° E visible
27 Jun 8.6 01:29:56 10° W 01:40:12 67° SSW 01:57:43 10° ESE visible
27 Jun 9.4 03:44:07 10° W 03:56:43 40° SSW 04:14:11 10° SSE visible
27 Jun 7.5 22:18:32 10° WSW 22:24:46 71° S 22:36:07 10° E visible
